Site menu:

About:

weather.olc.net provides weather information from NOAA, the National Weather Service, Weather Underground, and current weather data collected outside of Orangeburg, SC near Great Branch.


Today's Forecast

This
AfternoonThis Afternoon: A chance of showers, then showers and thunderstorms likely after 2pm.  Mostly cloudy, with a high near 83. South wind 6 to 8 mph.  Chance of precipitation is 60%. New rainfall amounts between a quarter and half of an inch possible.
T-storms
Likely

High: 83 °F

Tonight

Tonight: Showers and thunderstorms before 11pm, then a chance of showers.  Low around 56. West wind 6 to 8 mph.  Chance of precipitation is 80%. New precipitation amounts between a quarter and half of an inch possible.
T-storms then
Chance
Showers
Low: 56 °F

Weather Almanac

Today In 2019
High: 96.8°F
Low: 64.6°F

Today in 2018
High: 85.9°F
Low: 71.9°F

Columbia Metro Airport

Sep 29th Weather Records
Astronomical Info

Sunrise:
07:17 am

Sunset:
07:09 pm
Civil Twilight    
Dawn:
06:53 am
Dusk:
07:34 pm
Moonset: 04:04 am
Moonrise: 05:31 pm
Full MoonOct 01
Last Qtr.Oct 09
New MoonOct 16
First Qtr.Oct 23
Current PhaseFull Moon 96%

Regional Weather Roundup
Issued by NWS Columbia, SC


896
ASUS42 KCAE 291610
RWRCAE
REGIONAL WEATHER ROUNDUP
NATIONAL WEATHER SERVICE COLUMBIA SC
1200 PM EDT TUE SEP 29 2020

NOTE: "FAIR" INDICATES FEW OR NO CLOUDS BELOW 12,000 FEET WITH NO
SIGNIFICANT WEATHER AND/OR OBSTRUCTIONS TO VISIBILITY.

NOT ALL STATIONS ARE QUALITY CONTROLLED BY THE NATIONAL
WEATHER SERVICE. USE DATA WITH CAUTION...ESPECIALLY
DEWPOINT OBSERVATIONS.

SCZ001>056-GAZ040-063>065-077-291700-
...UPSTATE SOUTH CAROLINA...

CITY           SKY/WX    TMP DP  RH WIND       PRES   REMARKS
ANDERSON       LGT RAIN  69  66  90 W10       29.83S
LIBERTY        LGT RAIN  68  68 100 SW8       29.83F
SPARTANBURG    CLOUDY    75  68  78 SW8       29.80F
CLEMSON        LGT RAIN  66  64  93 W8G18     29.84F
GREENVILLE     RAIN      71  69  93 SW13      29.82F FOG
GREENWOOD      CLOUDY    77  70  79 W10       29.82F
GREER          LGT RAIN  71  69  93 SW12      29.81F
ROCK HILL      CLOUDY    74  70  87 S10       29.82F
CHESTER        CLOUDY    73  70  88 S7        29.83S
LAURENS        CLOUDY    77  68  73 S12       29.81F


...CENTRAL SOUTH CAROLINA...

CITY           SKY/WX    TMP DP  RH WIND       PRES   REMARKS
COLUMBIA APT   PTSUNNY   81  70  69 SW10      29.80F
COLUMBIA OWENS PTSUNNY   81  71  71 SW9       29.81F
MCENTIRE ANGB  PTSUNNY   81  73  76 S8        29.80F
ORANGEBURG     CLOUDY    79  71  76 SW8       29.83F
SUMTER SHAW    CLOUDY    78  71  81 S7        29.83F
NEWBERRY       CLOUDY    77  70  78 SW9G18    29.84F
AIKEN          PTSUNNY   79  71  76 SW10      29.83F
BARNWELL       FAIR      81  72  74 SW7       29.82F
MANNING        CLOUDY    77  70  78 SW8       29.84F
CAMDEN         CLOUDY    77  72  83 CALM      29.83F
LANCASTER      CLOUDY    81  72  74 S7        29.82F
WINNSBORO      CLOUDY    79  70  73 SW12      29.81F


...EASTERN AND COASTAL SOUTH CAROLINA...

CITY           SKY/WX    TMP DP  RH WIND       PRES   REMARKS
MYRTLE BEACH   CLOUDY    81  75  82 VRB7      29.85F
N MYRTLE BCH   CLOUDY    82  76  81 S7        29.84F
CONWAY         PTSUNNY   79  73  83 SW7       29.84F
MARION         FAIR      79  73  83 SW7       29.84F
HARTSVILLE     CLOUDY    75  72  88 S5        29.84F
FLORENCE       PTSUNNY   79  72  79 W7        29.84F
DARLINGTON     CLOUDY    77  72  84 SW12      29.84F
CHARLESTON APT PTSUNNY   81  73  76 W6        29.83F
MOUNT PLEASANT PTSUNNY   77  77 100 CALM      29.84F
WALTERBORO     CLOUDY    81  72  74 W7        29.84F
BEAUFORT       CLOUDY    82  73  74 VRB5      29.84F
HILTON HEAD    CLOUDY    79  73  83 W7        29.85F


...EASTERN GEORGIA...

CITY           SKY/WX    TMP DP  RH WIND       PRES   REMARKS
AUGUSTA BUSH F PTSUNNY   84  72  67 SW9       29.80F
AUGUSTA DANIEL PTSUNNY   81  71  71 SW9       29.82F
THOMSON        CLOUDY    78  70  75 W7        29.83F
WASHINGTON     PTSUNNY   72  68  88 SW8       29.84F
CLAXTON        PTSUNNY   83  74  72 CALM      29.83F
SYLVANIA       MOSUNNY   84  73  69 SW7       29.83F
STATESBORO     PTSUNNY   81  70  69 W7        29.83F
SAVANNAH       PTSUNNY   81  75  82 W5        29.84F


...SOUTHERN NORTH CAROLINA...

CITY           SKY/WX    TMP DP  RH WIND       PRES   REMARKS
CHARLOTTE      CLOUDY    74  70  87 S10       29.82F
MONROE         CLOUDY    73  69  87 SW7       29.83F
WADESBORO      MOSUNNY   78  69  74 S8        29.83F
ROCKINGHAM     PTSUNNY   77  71  81 S7        29.84F
RUTHERFORDTON  TSTM      66  66 100 SW7       29.82S
ASHEVILLE      RAIN      55  53  93 N15G23    29.91R FOG

$$